Location: Nakusp
(50.2330°N, 117.8000°W)
Time: 09:20:41
(UTC-08:00)

Daily predictions for brighter satellites

Satellite Brightness Start Highest point End
(mag) Time Altitude Azimuth Time Altitude Azimuth Time Altitude Azimuth
CZ-4 R/B 3.9 17:51:38 10° SSW 17:55:18 30° W 17:59:02 10° NNW
Meteor 1-18 Rocket 4.3 17:51:31 10° NNW 17:57:07 86° W 18:02:43 10° S
NOSS 2-2 (E) 3.8 17:53:03 10° SW 17:57:17 82° NW 18:02:30 10° NE
Genesis I 3.7 17:54:08 10° NNW 17:57:57 43° NE 18:01:43 10° ESE
Cosmos 2322 Rocket 3.0 17:53:26 10° NW 17:58:57 58° WSW 18:04:26 10° S
Cosmos 1709 Rocket 4.4 17:54:30 10° SSE 18:00:15 41° E 18:05:57 10° NNE
ATLAS 2AS CENTAUR R/B 4.2 17:54:55 10° WNW 18:02:00 32° N 18:09:05 10° ENE
SJ-6B 3.1 17:58:33 10° SE 18:02:21 44° ENE 18:06:06 10° N
Cosmos 2151 Rocket 3.8 17:59:46 10° SSE 18:04:07 50° E 18:08:31 10° NNE
Okean 1 Rocket 4.3 18:01:39 10° SE 18:05:05 22° E 18:08:31 10° NE
USA 215 3.5 18:01:11 10° ENE 18:07:41 69° NNW 18:14:09 10° WSW
Meteor 1-19 Rocket 4.5 18:02:24 10° N 18:07:54 50° ENE 18:13:27 10° SSE
Meteor 1-20 Rocket 4.3 18:02:35 10° S 18:08:22 70° E 18:14:13 10° NNE
deb Kosmos-1763 4.1 18:05:52 10° SSW 18:09:39 73° ESE 18:13:27 10° NNE
FENGYUN 3A 3.9 18:06:58 10° SE 18:12:07 47° ENE 18:17:19 10° N
TSX-5 4.3 18:09:35 10° S 18:12:17 26° ESE 18:15:10 10° NE
BREEZE-M DEB (TANK) 2.4 18:10:24 10° W 18:12:32 45° SSW 18:16:13 10° ESE
Cosmos 1833 Rocket 4.5 18:07:44 10° WSW 18:12:40 30° NW 18:17:36 10° NNE
Cosmos 1238 Rocket 2.5 18:11:25 10° N 18:14:22 40° ENE 18:17:10 10° SSE
Cosmos 2322 3.7 18:09:39 10° NNW 18:15:26 76° ENE 18:21:08 10° SE
NOSS 2-2 (D) 4.1 18:14:07 10° SW 18:18:18 66° NW 18:23:28 10° NE
Cosmos 1745 Rocket 4.3 18:12:05 10° SSW 18:18:24 78° W 18:24:42 10° N
SKYMED 2 3.7 18:14:52 10° NNE 18:19:14 82° WNW 18:23:34 10° SSW
Cosmos 1025 Rocket 4.0 18:15:33 10° N 18:19:20 27° ENE 18:23:06 10° SE
ATLAS CENTAUR R/B 3.7 18:18:43 10° WNW 18:21:55 19° NNW 18:24:59 10° NNE
NOAA 12 4.2 18:17:25 10° SSE 18:22:45 86° WSW 18:28:08 10° NNW
CZ-2D R/B 4.2 18:20:10 10° ESE 18:23:23 26° ENE 18:26:37 10° N
Cosmos 1386 Rocket 4.5 18:17:45 10° S 18:23:51 89° W 18:29:56 10° N
Meteor 1-13 Rocket 4.1 18:19:34 10° N 18:25:08 73° ENE 18:30:45 10° SSE
Cosmos 2285 Rocket 4.5 18:19:29 10° NNW 18:25:37 42° NE 18:31:41 10° SE
Okean 1-7 Rocket 4.0 18:21:54 10° N 18:26:14 40° ENE 18:30:29 10° SE
H-2A R/B 3.2 18:25:01 10° SE 18:28:26 36° ENE 18:31:55 10° N
Cosmos 1812 4.4 18:24:54 10° NNW 18:28:31 38° W 18:32:06 10° SSW
Okean 1 4.0 18:24:51 10° NNW 18:28:52 60° W 18:32:52 10° S
Cosmos 1536 3.7 18:25:44 10° SSE 18:29:07 27° E 18:32:31 10° NNE
COSMOS 2428 2.8 18:25:11 10° NNW 18:30:49 57° NE 18:36:25 10° SE
Cosmos 2237 4.2 18:25:22 10° NNW 18:31:07 70° ENE 18:36:49 10° SE
Cosmos 1633 2.7 18:28:23 10° S 18:31:58 51° E 18:35:34 10° NNE
Cosmos 2333 4.4 18:26:28 10° NNW 18:32:05 53° NE 18:37:42 10° SE
Meteor 2-4 Rocket 3.7 18:28:16 10° N 18:33:47 56° ENE 18:39:08 10° SSE
METEOR-M 4.4 18:28:39 10° S 18:33:59 72° WSW 18:39:21 10° NNW
Cosmos 2237 Rocket 3.2 18:29:29 10° NNW 18:34:24 28° NE 18:37:45 17° E
Cosmos 1536 Rocket 4.0 18:30:01 10° NNW 18:34:28 68° W 18:38:55 10° S
NOSS 2-2 (C) 4.5 18:31:32 10° WSW 18:35:41 51° NW 18:40:49 10° NE
SL-19 R/B 4.4 18:36:13 10° SSE 18:41:56 73° ENE 18:48:06 10° NNW
NOSS 0 Rocket 4.3 18:42:23 10° NNW 18:48:18 45° NE 18:52:27 19° ESE
Cosmos 1818 3.5 18:44:04 10° SW 18:49:31 85° SE 18:55:02 10° NE
Cosmos 2360 Rocket 2.8 18:44:10 10° NW 18:49:43 58° WSW 18:55:16 10° S
Cosmos 407 Rocket 3.9 18:44:45 10° SSW 18:50:00 68° WNW 18:55:21 10° NNE
Cosmos 2219 Rocket 2.4 18:46:03 10° NNW 18:51:30 49° NE 18:55:22 19° ESE
Cosmos 676 Rocket 4.0 18:49:28 10° SSW 18:54:40 83° WNW 18:59:57 10° NNE
Cosmos 2219 3.7 18:50:57 10° S 18:56:08 36° ESE 19:01:21 10° NE
Cosmos 1570 Rocket 4.0 18:51:48 10° NNW 18:57:04 87° WSW 19:02:19 10° SSE
Cosmos 1602 3.8 18:58:26 10° SSW 19:02:20 77° WNW 19:06:16 10° N
Resurs 01 Rocket 1.7 19:02:06 10° S 19:06:30 77° WSW 19:10:56 10° NNW
Meteor 1-11 Rocket 3.8 19:00:41 10° S 19:06:31 86° E 19:12:30 10° NNE
Cosmos 1300 Rocket 3.7 19:03:05 10° SSW 19:07:30 77° W 19:11:59 10° N
SL-16 R/B 3.4 19:03:11 10° NNW 19:07:50 25° NE 19:09:14 23° ENE
Cosmos 1140 Rocket 3.4 19:04:01 10° SSW 19:09:10 84° ESE 19:14:23 10° NNE
Spot 1 3.8 19:10:05 15° SSE 19:13:22 76° ENE 19:17:34 10° NNW
ALOS 3.1 19:11:57 10° S 19:16:30 51° W 19:21:05 10° NNW
Cosmos 614 Rocket 3.8 19:11:38 10° SSW 19:16:42 75° ESE 19:21:47 10° NNE
Cosmos 468 Rocket 4.0 19:12:06 10° NNW 19:17:18 59° ENE 19:19:38 32° SE
Helios 1A 2.8 19:17:34 17° SSE 19:20:42 84° ENE 19:24:53 10° NNW
Cosmos 1833 4.4 19:17:37 10° SW 19:23:18 74° WNW 19:28:58 10° NNE
Resurs 1-3 4.1 19:19:45 10° S 19:24:05 61° WSW 19:28:28 10° NNW
Spot 2 Rocket 4.0 19:19:08 10° S 19:24:08 60° WSW 19:29:10 10° NNW
Cosmos 2333 Rocket 2.2 19:19:57 10° NNW 19:25:43 69° ENE 19:28:17 34° SE
Cosmos 2327 Rocket 4.4 19:19:47 10° S 19:26:00 73° E 19:32:21 10° NNE
USA 186 2.2 19:27:25 47° NNW 19:27:25 47° NNW 19:29:36 10° NNW
Helios 1B rocket 2.7 19:24:19 10° NNE 19:30:53 22° S 19:32:29 10° S
CZ-4B DEB 3.7 19:29:29 38° N 19:29:29 38° N 19:31:35 10° N
USA 32 4.4 19:24:50 10° N 19:29:44 40° ENE 19:29:44 40° ENE
Okean 2 3.3 19:28:15 10° N 19:32:26 86° W 19:34:27 30° S
Cosmos 1980 3.7 19:27:39 10° NNW 19:33:18 64° ENE 19:35:02 43° ESE
Cosmos 1814 Rocket 3.9 19:29:49 10° NNW 19:34:59 63° ENE 19:36:05 50° ESE
Cosmos 1850 Rocket 4.0 19:31:36 10° SSW 19:36:55 89° WNW 19:42:19 10° NNE
USA 229 DEB 4.0 19:29:56 10° NW 19:36:59 68° SW 19:42:02 21° SSE
USA 229 4.0 19:30:02 10° NW 19:37:05 69° SW 19:42:06 21° SSE
Envisat 2.9 19:38:53 45° SE 19:40:24 70° ENE 19:45:29 10° N
Cosmos 1892 Rocket 3.4 19:38:18 10° N 19:42:41 88° W 19:43:43 52° S
Okean 1 Rocket 4.2 19:38:22 10° SSW 19:42:41 46° WNW 19:47:03 10° N
ERS-1 Rocket 3.1 19:45:24 51° ENE 19:45:24 51° ENE 19:50:09 10° N
Cosmos 2074 Rocket 4.1 19:39:14 10° SSW 19:45:29 80° W 19:51:50 10° N
Cosmos 2184 Rocket 4.1 19:42:18 10° SSW 19:48:37 79° W 19:54:55 10° N
NOSS 3-1 (A) 4.0 19:42:23 10° NW 19:49:40 69° NE 19:52:26 43° ESE
USA 215 3.8 19:47:08 29° NE 19:50:17 50° N 19:56:31 10° WNW
Meteor 1-5 Rocket 4.4 19:47:24 10° SSW 19:53:23 79° WNW 19:59:18 10° N
Cosmos 405 Rocket 3.2 19:51:03 10° NNW 19:55:06 61° W 19:55:33 57° SW
ATLAS 2AS CENTAUR R/B 3.8 19:47:35 10° NW 19:55:13 40° NNE 19:57:44 33° ENE
SPOT 5 4.2 19:57:10 29° NNE 19:57:10 29° NNE 20:00:12 10° N
Cosmos 1939 Rocket 3.7 20:00:51 44° NNW 20:00:51 44° NNW 20:03:39 10° NNW
ATLAS CENTAUR R/B 4.0 20:01:23 10° NNW 20:02:29 11° N 20:03:20 10° N
H-2A R/B 3.8 20:05:00 21° NNE 20:05:00 21° NNE 20:07:30 10° N
Nadezhda 3 Rocket 3.9 19:57:01 10° N 20:03:13 85° W 20:06:14 33° S
GEOS 3 Rocket 3.6 20:01:57 42° NE 20:03:46 80° NW 20:09:03 10° SW
Gbstr 26 Del rocket 4.3 20:00:16 10° SW 20:02:04 26° SW 20:02:04 26° SW
NOSS 3-1 (C) 3.9 20:01:52 10° NW 20:09:15 86° SW 20:11:48 49° SE
Cosmos 2341 Rocket 3.9 20:11:38 68° ESE 20:11:49 69° E 20:18:11 10° NNE
COSMOS 2428 4.5 20:09:58 10° NW 20:14:46 29° WSW 20:19:33 10° SSW
Cosmos 2154 Rocket 3.9 20:11:14 10° S 20:17:35 87° W 20:23:58 10° N
Cosmos 1066 Rocket 4.1 20:13:13 10° NNW 20:18:57 87° W 20:19:01 86° SW
Cosmos 2237 Rocket 2.3 20:13:17 10° NNW 20:18:59 70° WSW 20:19:37 64° SSW
Cosmos 841 Rocket 3.7 20:16:51 10° NNW 20:21:09 62° NNW 20:21:09 62° NNW
ARGOS 4.1 20:32:29 37° N 20:32:29 37° N 20:35:51 10° N
Cosmos 2219 Rocket 3.6 20:30:19 10° NW 20:35:17 33° WSW 20:37:08 27° SW
Cosmos 1763 Rocket 4.0 20:30:14 10° NNW 20:34:33 56° WNW 20:34:33 56° WNW
Cosmos 2219 4.1 20:34:40 10° SW 20:40:12 47° NW 20:45:45 10° NNE
SL-16 R/B 2.9 20:46:56 10° NNW 20:51:08 51° NW 20:51:08 51° NW
Terra 4.4 21:13:15 13° N 21:13:15 13° N 21:13:49 10° N
Cosmos 2333 Rocket 4.0 21:05:00 10° NW 21:09:28 24° WSW 21:10:20 23° WSW
USA 215 4.0 21:34:28 47° NW 21:34:28 47° NW 21:39:14 10° WNW
H-2A R/B 4.3 21:45:37 22° NNW 21:45:37 22° NNW 21:47:33 10° NNW
ATLAS 2AS CENTAUR R/B 3.5 21:39:01 10° NW 21:45:11 56° NW 21:45:11 56° NW
